Regional Weather Roundup
Issued by NWS

Home | Current Version | Previous Version | Text Only | Print | Product List | Glossary Off
Versions: 1 2 3 4 5 6 7 8 9 10 11 12 13 14 15 16 17 18 19 20 21 22 23 24 25 26 27 28 29 30 31 32 33 34 35 36 37 38 39 40 41 42 43 44 45 46 47 48 49 50

000
ASUS45 KTFX 021119
RWRMT
MONTANA HOURLY WEATHER ROUNDUP
NATIONAL WEATHER SERVICE GREAT FALLS MT
519 AM MDT TUE SEP 2 2014

NOTE: "FAIR" INDICATES FEW OR NO CLOUDS BELOW 12000 FEET WITH NO
SIGNIFICANT WEATHER AND/OR OBSTRUCTIONS TO VISIBILITY.

* THESE STATIONS ARE NOT UNDER NWS QUALITY CONTROL. THEY DO NOT
   REPORT WEATHER SUCH AS PRECIPITATION OR FOG.

MTZ001>007-043-021200-
WEST OF THE DIVIDE
CITY           SKY/WX    TMP DP  RH WIND       PRES   REMARKS
KALISPELL      PTCLDY    43  41  93 CALM      29.92S
MISSOULA       CLEAR     43  37  79 CALM      29.99F
BUTTE          PTCLDY    37  34  89 SE3       30.05F
MULLAN PASS    MOCLDY    46  37  71 SW9       30.01F
* LINCOLN      N/A       38  35  89 E1         N/A
* LOOKOUT PASS N/A       43  38  83 S2         N/A
* POLSON       N/A       49  40  71 SE3        N/A
* RONAN APT    MOCLDY    43  39  86 N/A        N/A
* SEELEY LAKE  N/A       34  33  96 N/A        N/A
* THOMP F APT  MOCLDY    43  36  76 NE3        N/A
$$

MTZ008-052>055-021200-
SOUTHWEST MONTANA
CITY           SKY/WX    TMP DP  RH WIND       PRES   REMARKS
BOZEMAN        PTCLDY    43  37  79 E3        29.99S
DILLON         CLEAR     45  37  74 S9        30.01F
W YELLOWSTONE  CLEAR     32  32 100 E3        30.13S
* THREE FORKS  PTCLDY    45  28  51 N/A        N/A
* BOULDER HILL N/A       48  30  50 SW6G12     N/A
* MONIDA PASS  N/A       42  36  79 SE12       N/A
* RAYNOLDS PAS N/A       42  24  49 S12        N/A
* WHITEHALL    N/A       44  39  83 E1         N/A
* WISE RIVER   N/A       36  32  85 W4         N/A
$$

MTZ009>010-012-014-046-048-049-054-021200-
EAST SLOPES AND CENTRAL MONTANA
CITY           SKY/WX    TMP DP  RH WIND       PRES   REMARKS
CUT BANK       MOCLDY    52  37  57 SW12      29.87F
GREAT FALLS    CLOUDY    50  39  66 SW9       29.90F
HELENA         CLOUDY    61  37  41 W10       29.95F
MALMSTROM AFB  CLOUDY    50  39  66 SW10      29.91F
* CONRAD       MOCLDY    45  39  80 N/A        N/A
* EAST GLACIER N/A       50  36  59 W17G23     N/A
* MONARCH      N/A       51  28  41 SW11G23    N/A
* PENDROY      N/A       49  36  61 SW8        N/A
* ROGERS PASS  N/A       49  35  59 SE11G18    N/A
* SAINT MARY   N/A       54  37  53 S8G15      N/A
* SWEET GRASS  N/A       52  36  55 W9G15      N/A
* WHITE SULPH  N/A       43  33  68 S2         N/A
$$

MTZ011-013-016-021-035-040-045-047-050-051-021200-
NORTH CENTRAL MONTANA
CITY           SKY/WX    TMP DP  RH WIND       PRES   REMARKS
HAVRE          PTCLDY    50  39  66 SW9       29.84S
LEWISTOWN      MOCLDY    46  37  71 E3        29.93S
* CHINOOK      PTCLDY    52  39  61 SW8       29.83S
* FORT BENTON  CLOUDY    54  37  53 SW5       29.88F
* CHESTER      N/A       43  36  76 N/A        N/A
* DENTON       N/A       49  41  74 SW9        N/A
* GEYSER       N/A       45  37  74 W7         N/A
* JUDITH GAP   N/A       46  37  71 SE2        N/A
* LOMA         N/A       51  39  64 W5         N/A
$$

MTZ017>020-022>027-061-062-021200-
NORTHEAST MONTANA
CITY           SKY/WX    TMP DP  RH WIND       PRES   REMARKS
GLASGOW        PTCLDY    54  45  72 W7        29.79S
GLENDIVE       MOCLDY    52  46  80 NW5       29.85R
JORDAN         PTCLDY    52  45  77 W6        29.85S
SIDNEY         PTCLDY    50  46  86 S6        29.81R
WOLF POINT     PTCLDY    55  46  72 W6        29.79S
* BEAVER HILL  N/A       53  43  69 S16        N/A
* CIRCLE       N/A       53  45  74 N/A        N/A
* LINDSAY DVD  N/A       57  41  55 SW13G18    N/A
* NAVAJO       N/A       51  45  80 W11        N/A
* SACO         N/A       57  45  64 SW10       N/A
$$

MTZ028>042-056>058-021200-
SOUTHCENTRAL AND SOUTHEAST MONTANA
CITY           SKY/WX    TMP DP  RH WIND       PRES   REMARKS
BAKER          PTCLDY    55  43  64 SW12      29.88F
BILLINGS       PTCLDY    54  43  67 SW12      29.91F
LIVINGSTON     PTCLDY    48  37  66 NW10      29.97S
MILES CITY     PTCLDY    50 N/A N/A CALM      29.87S
* LAUREL APT   PTCLDY    46  37  71 N/A        N/A
* ROUNDUP APT  MOCLDY    46  37  71 SW6        N/A
* ALZADA       N/A       54  41  62 SE1        N/A
* HYSHAM       N/A       51  37  59 W2         N/A
* LAME DEER    N/A       52  41  66 S8         N/A
* REED POINT   N/A       43  41  93 N/A        N/A
* ROSCOE HILL  N/A       53  28  38 SE11       N/A
$$

REGIONAL REPORTS...DAKOTAS
CITY           SKY/WX    TMP DP  RH WIND       PRES   REMARKS
WILLISTON      PTCLDY    54  48  80 SW7       29.77S
DICKINSON      PTCLDY    54  45  72 SW14      29.82F
BEACH          N/A       52  46  80 SW12      29.85S
CROSBY         CLEAR     50  50 100 S9        29.73F
TIOGA          FAIR      52  52 100 SW10      29.78F
WATFORD CITY   FAIR      52  48  86 S6        29.77F
BISMARCK       MOCLDY    50  48  93 CALM      29.84F
GRAND FORKS    FAIR      52  48  86 W7        29.76S
FARGO          CLEAR     52  48  86 S7        29.80F
BUFFALO SD     CLEAR     52  45  77 W10       29.84F
RAPID CITY     CLEAR     48  39  71 W7        29.97F
$$

REGIONAL REPORTS...WYOMING/IDAHO/WASHINGTON
CITY           SKY/WX    TMP DP  RH WIND       PRES   REMARKS
GILLETTE       CLEAR     50  43  77 S12       29.99F
SHERIDAN       CLEAR     48  39  71 S5        29.93F
CODY           CLEAR    N/A N/A N/A N/A        N/A
YELLOWSTONE LA CLEAR     30  28  92 CALM      30.20F
SALMON         PTCLDY    43  39  86 CALM      30.03R
MULLAN PASS    MOCLDY    46  37  71 SW9       30.01S
SAND POINT     CLOUDY    46  46 100 CALM      29.89F
SPOKANE        MOCLDY    54  39  57 S12       29.89F
$$

REGIONAL REPORTS...ALBERTA
CITY           SKY/WX    TMP DP  RH WIND       PRES   REMARKS
CALGARY        N/A       48  39  71 SW6       29.78F
LETHBRIDGE     CLOUDY    54  43  67 SW9       29.81S
MEDICINE HAT   CLEAR     45  45 100 S5        29.79S
EDMONTON       MOCLDY    45  43  93 S3        29.73S
WATERTON GATE  N/A       55  37  51 SW13G18    N/A
CARDSTON       N/A       57  39  51 W7         N/A
MILK RIVER     N/A       46  39  77 W2         N/A
$$

REGIONAL REPORTS...SASKATCHEWAN
CITY           SKY/WX    TMP DP  RH WIND       PRES   REMARKS
SWIFT CURRENT  CLEAR     45  43  93 W9        29.75R
REGINA         MOCLDY    48  46  93 S5        29.70S
VAL MARIE      N/A       48  43  83 SW3        N/A
ASSINIBOIA     N/A       52  46  80 W10        N/A
CORONACH       N/A       52  45  77 W9         N/A

$$




USA.gov is the U.S. government's official web portal to all federal, state and local government web resources and services.